Weather reports worldwide

Advertisment
Shoeburyness Landwick, United Kingdom (3693): temperature & dewpoint: 18.06.2017 23:00:00 - 24.06.2017 23:00:00 (BST)Shoeburyness Landwick, United Kingdom (3693): temperature 5cm: 18.06.2017 23:00:00 - 24.06.2017 23:00:00 (BST)Shoeburyness Landwick, United Kingdom (3693): temperature -20cm & temperature -100cm: 18.06.2017 23:00:00 - 24.06.2017 23:00:00 (BST)Shoeburyness Landwick, United Kingdom (3693): wind speed: 18.06.2017 23:00:00 - 24.06.2017 23:00:00 (BST)Shoeburyness Landwick, United Kingdom (3693): wind direction: 18.06.2017 23:00:00 - 24.06.2017 23:00:00 (BST)Shoeburyness Landwick, United Kingdom (3693): reduced air pressure: 18.06.2017 23:00:00 - 24.06.2017 23:00:00 (BST)Shoeburyness Landwick, United Kingdom (3693): visibility: 18.06.2017 23:00:00 - 24.06.2017 23:00:00 (BST)Shoeburyness Landwick, United Kingdom (3693): sunshine duration: 18.06.2017 23:00:00 - 24.06.2017 23:00:00 (BST)Shoeburyness Landwick, United Kingdom (3693): precipitation: 18.06.2017 23:00:00 - 24.06.2017 23:00:00 (BST)
Date & Time tt [°C] td [°C] tt 5cm [°C] tt -20cm [°C] tt -100cm [°C] ff [km/h] ff [kn] dd ppp [hPa] vv [km] sd [min] rr [mm]
24.06.2017 23:00:00 - - - - - - - - - - - -
24.06.2017 22:00:00 - - - - - - - - - - - -
24.06.2017 21:00:00 - - - - - - - - - - - -
24.06.2017 20:00:00 - - - - - - - - - - - -
24.06.2017 19:00:00 - - - - - - - - - - - -
24.06.2017 18:00:00 - - - - - - - - - - - -
24.06.2017 17:00:00 - - - - - - - - - - - -
24.06.2017 16:00:00 - - - - - - - - - - - -
24.06.2017 15:00:00 - - - - - - - - - - - -
24.06.2017 14:00:00 - - - - - - - - - - - -
24.06.2017 13:00:00 - - - - - - - - - - - -
24.06.2017 12:00:00 - - - - - - - - - - - -
24.06.2017 11:00:00 - - - - - - - - - - - -
24.06.2017 10:00:00 - - - - - - - - - - - -
24.06.2017 09:00:00 - - - - - - - - - - - -
24.06.2017 08:00:00 - - - - - - - - - - - -
24.06.2017 07:00:00 - - - - - - - - - - - -
24.06.2017 06:00:00 - - - - - - - - - - - -
24.06.2017 05:00:00 - - - - - - - - - - - -
24.06.2017 04:00:00 17,1 13,8 - - - 18 10 WSW 1014,2 27 0 0,0
24.06.2017 03:00:00 16,8 13,5 - - - 22 12 WSW 1014,5 30 0 0,0
24.06.2017 02:00:00 17,1 13,8 - - - 24 13 WSW 1014,8 30 0 0,0
24.06.2017 01:00:00 17,5 14,2 - - - 22 12 WSW 1015,1 27 - 0,0
24.06.2017 00:00:00 17,7 14,4 - - - 22 12 WSW 1015,3 30 0 0,0
23.06.2017 23:00:00 18,2 14,1 - - - 28 15 WSW 1015,5 35 0 0,0
23.06.2017 22:00:00 18,8 13,8 - - - 26 14 WSW 1015,7 30 0 0,0
23.06.2017 21:00:00 19,4 13,5 - - - 26 14 SW 1015,7 45 0 0,0
23.06.2017 20:00:00 20,7 14,0 - - - 22 12 WSW 1015,6 40 12 0,0
23.06.2017 19:00:00 22,2 13,9 - - - 21 11 W 1015,4 45 6 0,0
23.06.2017 18:00:00 22,6 12,5 - - - 26 14 WSW 1015,4 35 6 0,0
23.06.2017 17:00:00 23,3 12,7 - - - 26 14 WSW 1015,2 50 36 0,0
23.06.2017 16:00:00 23,7 12,5 - - - 28 15 WSW 1015,1 35 60 0,0
23.06.2017 15:00:00 22,7 11,9 - - - 26 14 WSW 1015,4 28 54 0,0
23.06.2017 14:00:00 22,8 11,7 - - - 28 15 WSW 1015,3 30 60 0,0
23.06.2017 13:00:00 21,7 11,9 - - - 28 15 WSW 1015,6 35 60 0,0
23.06.2017 12:00:00 20,5 11,8 - - - 28 15 WSW 1016,0 30 60 0,0
23.06.2017 11:00:00 19,4 11,2 - - - 28 15 WSW 1016,0 45 60 0,0
23.06.2017 10:00:00 18,7 11,0 - 19,7 16,2 24 13 W 1016,0 50 60 0,0
23.06.2017 09:00:00 17,5 11,1 - - - 22 12 W 1015,8 35 60 0,0
23.06.2017 08:00:00 16,3 12,0 - - - 18 10 W 1015,4 30 60 0,0
23.06.2017 07:00:00 14,8 11,8 - - - 15 8 W 1015,3 40 24 0,0
23.06.2017 06:00:00 14,4 11,5 - - - 16 9 W 1015,1 50 0 0,0
23.06.2017 05:00:00 14,6 12,1 - - - 15 8 W 1014,8 45 0 0,0
23.06.2017 04:00:00 15,1 13,7 - - - 9 5 W 1014,4 20 0 0,0
23.06.2017 03:00:00 15,7 12,6 - - - 8 4 W 1014,3 50 0 0,0
23.06.2017 02:00:00 15,9 13,0 - - - 9 5 WNW 1014,3 45 0 0,0
23.06.2017 01:00:00 18,6 14,7 - - - 9 5 WNW 1014,1 27 - 0,0
23.06.2017 00:00:00 18,8 15,5 - - - 8 4 WNW 1013,9 30 0 0,0
22.06.2017 23:00:00 18,9 15,9 - - - 8 4 WSW 1013,8 27 0 0,0
22.06.2017 22:00:00 17,7 15,1 - - - - - - 1013,3 29 36 0,0
22.06.2017 21:00:00 - - - - - - - - - - - 0,0
22.06.2017 20:00:00 - - - - - - - - - - - 0,0
22.06.2017 19:00:00 - - - - - - - - - - - 0,0
22.06.2017 18:00:00 - - - - - - - - - - - 0,0
22.06.2017 17:00:00 - - - - - - - - - - - 0,0
22.06.2017 16:00:00 - - - - - - - - - - - 0,0
22.06.2017 15:00:00 - - - - - - - - - - - 0,0
22.06.2017 14:00:00 - - - - - - - - - - - 0,0
22.06.2017 13:00:00 - - - - - - - - - - - 0,0
22.06.2017 12:00:00 - - - - - - - - - - - 0,0
22.06.2017 11:00:00 - - - - - - - - - - - 0,0
22.06.2017 10:00:00 23,8 16,5 - 20,0 16,0 16 9 WSW 1010,0 18 60 0,0
22.06.2017 09:00:00 23,2 17,0 - - - 18 10 W 1010,4 29 60 0,0
22.06.2017 08:00:00 22,3 16,2 - - - 18 10 WSW 1010,1 22 60 0,0
22.06.2017 07:00:00 21,1 16,4 - - - 13 7 WSW 1009,8 23 42 0,0
22.06.2017 06:00:00 20,1 16,8 - - - 13 7 SW 1010,0 17 0 0,0
22.06.2017 05:00:00 19,9 17,8 - - - 11 6 WSW 1010,2 11 0 0,0
22.06.2017 04:00:00 20,1 17,7 - - - 11 6 SW 1010,4 12 0 0,0
22.06.2017 03:00:00 20,7 18,0 - - - 9 5 WSW 1010,8 11 0 0,0
22.06.2017 02:00:00 19,7 17,8 - - - 8 4 SSW 1011,1 10 0 0,0
22.06.2017 01:00:00 20,6 18,4 - - - 8 4 SW 1011,4 10 - 0,0
22.06.2017 00:00:00 20,2 18,4 - - - 9 5 SSW 1011,7 9 0 0,0
21.06.2017 23:00:00 20,1 18,2 - - - 9 5 SSE 1011,9 6 0 0,0
21.06.2017 22:00:00 21,5 18,6 - - - 15 8 SE 1012,0 10 0 0,0
21.06.2017 21:00:00 20,8 18,1 - - - 5 3 ENE 1012,0 8 12 0,0
21.06.2017 20:00:00 22,0 18,3 - - - 9 5 E 1012,4 10 48 0,0
21.06.2017 19:00:00 21,9 18,3 - - - 11 6 E 1012,6 10 30 0,0
21.06.2017 18:00:00 22,6 18,1 - - - 18 10 E 1013,0 10 54 0,0
21.06.2017 17:00:00 22,8 18,0 - - - 18 10 E 1013,4 10 60 0,0
21.06.2017 16:00:00 22,5 18,0 - - - 21 11 E 1013,9 8 60 0,0
21.06.2017 15:00:00 22,8 17,8 - - - 18 10 E 1014,6 9 60 0,0
21.06.2017 14:00:00 22,1 17,4 - - - 21 11 E 1015,1 12 60 0,0
21.06.2017 13:00:00 21,0 17,1 - - - 21 11 E 1015,6 13 60 0,0
21.06.2017 12:00:00 20,1 16,1 - - - 22 12 E 1016,0 16 60 0,0
21.06.2017 11:00:00 20,1 16,1 - - - 24 13 E 1016,3 18 60 0,0
21.06.2017 10:00:00 20,1 16,5 20,4 19,7 15,9 22 12 E 1016,7 18 60 0,0
21.06.2017 09:00:00 19,8 16,4 - - - 22 12 E 1017,0 20 60 0,0
21.06.2017 08:00:00 19,3 16,2 - - - 22 12 E 1017,1 27 60 0,0
21.06.2017 07:00:00 18,6 16,7 - - - 15 8 E 1017,1 18 48 0,0
21.06.2017 06:00:00 17,2 16,3 - - - 13 7 E 1017,0 15 0 0,0
21.06.2017 05:00:00 15,9 15,5 - - - 11 6 ENE 1017,3 9 0 0,0
21.06.2017 04:00:00 15,8 15,3 - - - 9 5 NE 1017,4 9 0 0,0
21.06.2017 03:00:00 16,2 15,5 - - - 11 6 ENE 1017,7 10 0 0,0
21.06.2017 02:00:00 15,6 15,0 - - - 11 6 ENE 1018,1 11 0 0,0
21.06.2017 01:00:00 15,7 15,0 - - - 11 6 NE 1018,5 10 - 0,0
21.06.2017 00:00:00 16,3 15,5 - - - 13 7 NE 1018,6 10 0 0,0
20.06.2017 23:00:00 16,4 15,6 - - - 15 8 NE 1018,6 10 0 0,0
20.06.2017 22:00:00 16,5 15,9 - - - 15 8 NE 1018,9 10 0 0,0
20.06.2017 21:00:00 17,2 16,2 - - - 13 7 NE 1018,7 9 18 0,0
20.06.2017 20:00:00 18,3 16,6 - - - 18 10 ENE 1018,7 11 54 0,0
20.06.2017 19:00:00 19,4 17,0 - - - 24 13 ENE 1018,6 12 60 0,0
20.06.2017 18:00:00 19,7 17,4 - - - 22 12 E 1018,7 13 60 0,0
20.06.2017 17:00:00 21,2 17,5 - - - 26 14 E 1018,9 16 60 0,0
20.06.2017 16:00:00 22,6 17,9 - - - 22 12 ENE 1018,8 16 60 0,0
20.06.2017 15:00:00 23,1 17,7 - - - 22 12 ENE 1018,8 21 60 0,0
20.06.2017 14:00:00 23,4 17,7 - - - 22 12 E 1018,7 22 60 0,0
20.06.2017 13:00:00 23,7 17,2 - - - 15 8 E 1018,8 23 36 0,0
20.06.2017 12:00:00 21,0 17,6 - - - 13 7 E 1018,9 11 0 0,0
20.06.2017 11:00:00 21,8 17,8 - - - 13 7 E 1018,8 10 48 0,0
20.06.2017 10:00:00 22,0 17,4 22,0 19,7 15,7 13 7 ENE 1018,8 9 18 0,0
20.06.2017 09:00:00 21,4 17,3 - - - 13 7 ENE 1018,5 8 54 0,0
20.06.2017 08:00:00 20,4 19,3 - - - 11 6 NNE 1018,5 3,8 60 0,0
20.06.2017 07:00:00 17,6 17,6 - - - 5 3 N 1018,0 1,7 48 0,0
20.06.2017 06:00:00 13,5 13,5 - - - 5 3 NNW 1017,6 0,2 0 0,0
20.06.2017 05:00:00 12,2 12,1 - - - 8 4 NNW 1017,4 - 0 0,0
20.06.2017 04:00:00 13,6 13,6 - - - 2 1 S 1017,4 0,9 0 0,0
20.06.2017 03:00:00 12,8 12,6 - - - 5 3 NNE 1017,5 - 0 0,0
20.06.2017 02:00:00 14,0 13,8 - - - 5 3 N 1018,0 - 0 0,0
20.06.2017 01:00:00 14,7 14,1 - - - 4 2 NNE 1018,1 0,2 - 0,0
20.06.2017 00:00:00 16,0 15,2 - - - 5 3 E 1018,2 4,3 0 0,0
19.06.2017 23:00:00 17,3 15,5 - - - 9 5 ESE 1018,2 7 0 0,0
19.06.2017 22:00:00 18,1 15,8 - - - 9 5 ESE 1018,3 10 0 0,0
19.06.2017 21:00:00 19,1 16,6 - - - 8 4 ESE 1018,0 8 6 0,0
19.06.2017 20:00:00 21,5 16,9 - - - 8 4 ESE 1018,0 9 60 0,0
19.06.2017 19:00:00 23,1 17,3 - - - 11 6 ESE 1018,1 13 60 0,0
19.06.2017 18:00:00 23,2 17,4 - - - 13 7 E 1018,1 14 60 0,0
19.06.2017 17:00:00 25,5 16,9 - - - 16 9 E 1018,3 30 60 0,0
19.06.2017 16:00:00 25,6 17,4 - - - 16 9 ESE 1018,7 30 60 0,0
19.06.2017 15:00:00 24,8 19,1 - - - 15 8 ESE 1018,9 16 60 0,0
19.06.2017 14:00:00 24,7 18,5 - - - 15 8 E 1019,3 17 60 0,0
19.06.2017 13:00:00 24,3 18,3 - - - 15 8 E 1019,7 11 60 0,0
19.06.2017 12:00:00 23,9 18,1 - - - 13 7 E 1020,0 15 60 0,0
19.06.2017 11:00:00 22,7 17,7 - - - 11 6 E 1020,3 35 60 0,0
19.06.2017 10:00:00 21,7 17,6 22,4 19,5 15,5 13 7 E 1020,4 25 60 0,0
19.06.2017 09:00:00 22,0 17,3 - - - 11 6 ESE 1020,5 23 60 0,0
19.06.2017 08:00:00 21,3 17,9 - - - 8 4 NE 1020,6 19 60 0,0
19.06.2017 07:00:00 18,4 18,3 - - - 5 3 N 1020,9 7 60 0,0
19.06.2017 06:00:00 14,9 14,9 - - - 5 3 NNW 1020,7 2,1 18 0,0
19.06.2017 05:00:00 14,0 13,7 - - - 5 3 N 1020,9 0,2 0 0,0
19.06.2017 04:00:00 14,6 13,9 - - - 5 3 ENE 1021,1 2,5 0 0,0
19.06.2017 03:00:00 15,8 15,3 - - - 11 6 ESE 1021,4 21 0 0,0
19.06.2017 02:00:00 15,6 14,4 - - - 8 4 E 1021,8 6 0 0,0
19.06.2017 01:00:00 15,7 14,9 - - - 9 5 E 1022,1 9 - 0,0
19.06.2017 00:00:00 17,3 16,5 - - - 5 3 N 1022,0 6 0 0,0
18.06.2017 23:00:00 19,4 16,5 - - - 8 4 SE 1022,1 30 0 0,0

tt = temperature
td = dewpoint
tt 5cm = temperature 5cm
tt -20cm = temperature -20cm
tt -100cm = temperature -100cm
ff = wind speed
dd = wind direction
ppp = reduced air pressure
vv = visibility
sd = sunshine duration
rr = precipitation

Next stations